| time (UTC) | temp F | wind direction | speed MPH | gust MPH | rain 1hr in | rain 24hr in | rain mn in | humidity % | barometer mb |
| 20260506115739 | 43 | 83 | 0.0 | 0.0 | 0.00 | 0.88 | 0.61 | 95 | 1007.5 |
| 20260506114740 | 43 | 355 | 0.0 | 0.0 | 0.00 | 0.86 | 0.60 | 95 | 1007.3 |
| 20260506113733 | 43 | 348 | 0.0 | 1.0 | 0.00 | 0.86 | 0.60 | 95 | 1007.2 |
| 20260506112731 | 43 | 125 | 0.0 | 1.0 | 0.00 | 0.86 | 0.60 | 95 | 1007.0 |
| 20260506110655 | 43 | 167 | 0.0 | 0.0 | 0.00 | 0.86 | 0.60 | 95 | 1007.0 |
| 20260506105639 | 43 | 153 | 0.0 | 0.0 | 0.04 | 0.85 | 0.59 | 95 | 1006.7 |
| 20260506104638 | 43 | 197 | 0.0 | 0.0 | 0.04 | 0.85 | 0.59 | 95 | 1006.9 |
| 20260506103645 | 43 | 356 | 0.0 | 0.0 | 0.06 | 0.85 | 0.57 | 95 | 1007.2 |
| 20260506102639 | 44 | 3 | 0.0 | 0.0 | 0.06 | 0.83 | 0.57 | 95 | 1007.2 |
| 20260506101702 | 43 | 13 | 0.0 | 0.0 | 0.06 | 0.82 | 0.55 | 95 | 1007.4 |
| 20260506100633 | 44 | 96 | 0.0 | 0.0 | 0.06 | 0.82 | 0.55 | 95 | 1007.5 |
| 20260506095612 | 44 | 11 | 0.0 | 0.0 | 0.08 | 0.80 | 0.54 | 95 | 1007.1 |
| 20260506094552 | 44 | 3 | 0.0 | 0.0 | 0.08 | 0.78 | 0.52 | 95 | 1006.9 |
| 20260506093533 | 44 | 93 | 0.0 | 0.0 | 0.05 | 0.76 | 0.51 | 95 | 1007.1 |
| 20260506092532 | 44 | 314 | 0.0 | 0.0 | 0.04 | 0.76 | 0.50 | 95 | 1007.1 |
| 20260506091519 | 44 | 165 | 0.0 | 4.0 | 0.00 | 0.75 | 0.49 | 95 | 1006.8 |
| 20260506090507 | 44 | 131 | 0.0 | 2.0 | 0.04 | 0.75 | 0.48 | 95 | 1006.6 |
| 20260506085510 | 44 | 270 | 0.0 | 0.0 | 0.09 | 0.75 | 0.48 | 95 | 1006.6 |
| 20260506083301 | 45 | 309 | 0.0 | 0.0 | 0.05 | 0.72 | 0.45 | 95 | 1007.1 |
| 20260506082300 | 45 | 187 | 0.0 | 2.0 | 0.08 | 0.70 | 0.43 | 95 | 1006.7 |
| 20260506081253 | 45 | 136 | 0.0 | 0.0 | 0.09 | 0.69 | 0.43 | 95 | 1007.3 |
| 20260506080219 | 45 | 338 | 0.0 | 0.0 | 0.10 | 0.67 | 0.40 | 95 | 1007.3 |
| 20260506072945 | 45 | 102 | 0.0 | 0.0 | 0.09 | 0.62 | 0.36 | 95 | 1007.1 |
| 20260506071910 | 46 | 223 | 0.0 | 2.0 | 0.15 | 0.60 | 0.34 | 95 | 1007.0 |
| 20260506070842 | 46 | 93 | 0.0 | 0.0 | 0.10 | 0.59 | 0.32 | 95 | 1007.0 |
| 20260506061731 | 47 | 4 | 0.0 | 0.0 | 0.23 | 0.44 | 0.18 | 95 | 1007.4 |
| 20260506060744 | 47 | 29 | 0.0 | 0.0 | 0.13 | 0.41 | 0.16 | 95 | 1006.9 |
| 20260506050524 | 47 | 195 | 0.0 | 0.0 | 0.09 | 0.33 | 0.06 | 95 | 1007.9 |
| 20260506043315 | 47 | 158 | 0.0 | 0.0 | 0.06 | 0.29 | 0.03 | 95 | 1008.0 |
| 20260506042309 | 47 | 188 | 0.0 | 0.0 | 0.04 | 0.28 | 0.02 | 94 | 1007.9 |
| 20260506040214 | 47 | 155 | 0.0 | 0.0 | 0.06 | 0.26 | 0.00 | 94 | 1007.7 |
| 20260506035146 | 47 | 155 | 0.0 | 0.0 | 0.08 | 0.26 | 0.26 | 94 | 1008.0 |
| 20260506034158 | 47 | 155 | 0.0 | 0.0 | 0.13 | 0.24 | 0.25 | 94 | 1008.0 |
| 20260506033159 | 47 | 155 | 0.0 | 0.0 | 0.09 | 0.23 | 0.23 | 94 | 1008.3 |
| 20260506032210 | 47 | 153 | 0.0 | 0.0 | 0.00 | 0.21 | 0.21 | 94 | 1008.2 |
| 20260506031225 | 47 | 160 | 0.0 | 0.0 | 0.00 | 0.21 | 0.21 | 94 | 1008.3 |
| 20260506025119 | 47 | 159 | 0.0 | 0.0 | 0.00 | 0.19 | 0.20 | 94 | 1008.1 |
| 20260506024115 | 48 | 230 | 0.0 | 0.0 | 0.05 | 0.19 | 0.20 | 94 | 1008.2 |
| 20260506021936 | 48 | 342 | 0.0 | 0.0 | 0.05 | 0.19 | 0.19 | 94 | 1008.5 |
| 20260506020945 | 48 | 342 | 0.0 | 0.0 | 0.04 | 0.18 | 0.18 | 94 | 1008.7 |
| 20260506015956 | 48 | 342 | 0.0 | 0.0 | 0.06 | 0.16 | 0.17 | 94 | 1008.5 |
| 20260506014932 | 48 | 342 | 0.0 | 0.0 | 0.04 | 0.16 | 0.16 | 94 | 1008.5 |
| 20260506013922 | 48 | 342 | 0.0 | 0.0 | 0.00 | 0.14 | 0.15 | 94 | 1008.3 |
| 20260506012924 | 48 | 342 | 0.0 | 0.0 | 0.00 | 0.13 | 0.15 | 93 | 1008.3 |
| 20260506011923 | 48 | 342 | 0.0 | 0.0 | 0.00 | 0.13 | 0.13 | 93 | 1008.4 |
| 20260506010911 | 48 | 342 | 0.0 | 0.0 | 0.00 | 0.13 | 0.13 | 93 | 1008.0 |
| 20260506005915 | 48 | 342 | 0.0 | 0.0 | 0.00 | 0.13 | 0.13 | 93 | 1007.7 |
| 20260506004846 | 48 | 342 | 0.0 | 0.0 | 0.04 | 0.13 | 0.13 | 93 | 1007.5 |
| 20260506003841 | 48 | 342 | 0.0 | 0.0 | 0.05 | 0.13 | 0.13 | 92 | 1007.6 |
| 20260506002836 | 48 | 342 | 0.0 | 0.0 | 0.05 | 0.13 | 0.13 | 92 | 1007.4 |
| 20260506001851 | 48 | 342 | 0.0 | 0.0 | 0.06 | 0.12 | 0.12 | 92 | 1007.3 |
| 20260506000841 | 48 | 342 | 0.0 | 0.0 | 0.10 | 0.10 | 0.10 | 92 | 1007.4 |
| 20260505235832 | 47 | 342 | 0.0 | 0.0 | 0.00 | 0.09 | 0.10 | 92 | 1007.4 |
| 20260505234851 | 48 | 353 | 0.0 | 0.0 | 0.04 | 0.09 | 0.09 | 91 | 1007.3 |
| 20260505233820 | 48 | 342 | 0.0 | 0.0 | 0.04 | 0.08 | 0.09 | 91 | 1007.1 |
| 20260505231718 | 48 | 333 | 0.0 | 1.0 | 0.10 | 0.06 | 0.06 | 89 | 1007.4 |
| 20260505230740 | 49 | 347 | 0.0 | 1.0 | 0.15 | 0.04 | 0.05 | 88 | 1007.2 |
| 20260505225718 | 50 | 326 | 0.0 | 4.0 | 0.13 | 0.02 | 0.03 | 85 | 1006.8 |
| 20260505224652 | 52 | 4 | 0.0 | 4.0 | 0.00 | 0.00 | 0.00 | 80 | 1006.9 |
| 20260505222534 | 56 | 4 | 3.0 | 9.0 | 0.00 | 0.00 | 0.00 | 74 | 1006.4 |
| 20260505221502 | 58 | 335 | 3.0 | 10.0 | 0.00 | 0.00 | 0.00 | 70 | 1006.1 |
| 20260505220507 | 61 | 335 | 4.0 | 10.0 | 0.00 | 0.00 | 0.00 | 70 | 1005.4 |
| 20260505214409 | 63 | 6 | 4.0 | 12.0 | 0.00 | 0.00 | 0.00 | 68 | 1004.9 |
| 20260505212240 | 66 | 338 | 3.0 | 10.0 | 0.00 | 0.00 | 0.00 | 61 | 1004.1 |
| 20260505211209 | 67 | 345 | 4.0 | 16.0 | 0.00 | 0.00 | 0.00 | 61 | 1004.0 |
| 20260505210234 | 67 | 27 | 5.0 | 16.0 | 0.00 | 0.00 | 0.00 | 59 | 1003.7 |
| 20260505205214 | 67 | 26 | 4.0 | 11.0 | 0.00 | 0.00 | 0.00 | 62 | 1003.8 |
| 20260505204206 | 67 | 335 | 3.0 | 8.0 | 0.00 | 0.00 | 0.00 | 62 | 1003.9 |
| 20260505203208 | 67 | 74 | 3.0 | 8.0 | 0.00 | 0.00 | 0.00 | 64 | 1003.6 |
| 20260505202136 | 66 | 334 | 3.0 | 11.0 | 0.00 | 0.00 | 0.00 | 65 | 1003.5 |
| 20260505201148 | 66 | 40 | 3.0 | 11.0 | 0.00 | 0.00 | 0.00 | 63 | 1003.5 |
| 20260505200115 | 67 | 23 | 3.0 | 8.0 | 0.00 | 0.00 | 0.00 | 64 | 1003.6 |
| 20260505195111 | 66 | 347 | 1.0 | 8.0 | 0.00 | 0.00 | 0.00 | 65 | 1003.7 |
| 20260505194046 | 66 | 352 | 3.0 | 8.0 | 0.00 | 0.00 | 0.00 | 64 | 1003.7 |
| 20260505193054 | 66 | 151 | 3.0 | 9.0 | 0.00 | 0.00 | 0.00 | 63 | 1003.6 |
| 20260505190936 | 68 | 354 | 3.0 | 8.0 | 0.00 | 0.00 | 0.00 | 60 | 1003.5 |
| 20260505185922 | 70 | 8 | 4.0 | 7.0 | 0.00 | 0.00 | 0.00 | 58 | 1003.3 |
| 20260505184911 | 71 | 3 | 3.0 | 13.0 | 0.00 | 0.00 | 0.00 | 56 | 1002.9 |
| 20260505183924 | 71 | 139 | 5.0 | 13.0 | 0.00 | 0.00 | 0.00 | 53 | 1002.8 |
| 20260505182934 | 72 | 186 | 5.0 | 11.0 | 0.00 | 0.00 | 0.00 | 53 | 1002.9 |
| 20260505181935 | 72 | 348 | 3.0 | 11.0 | 0.00 | 0.00 | 0.00 | 55 | 1002.8 |
| 20260505180937 | 70 | 20 | 4.0 | 9.0 | 0.00 | 0.00 | 0.00 | 58 | 1003.0 |
| 20260505175937 | 70 | 132 | 4.0 | 12.0 | 0.00 | 0.00 | 0.00 | 56 | 1003.2 |
| 20260505174931 | 71 | 301 | 4.0 | 12.0 | 0.00 | 0.00 | 0.00 | 55 | 1003.1 |
| 20260505173914 | 71 | 15 | 4.0 | 10.0 | 0.00 | 0.00 | 0.00 | 57 | 1002.9 |
| 20260505172924 | 70 | 338 | 3.0 | 10.0 | 0.00 | 0.00 | 0.00 | 57 | 1002.6 |
| 20260505171946 | 69 | 2 | 3.0 | 10.0 | 0.00 | 0.00 | 0.00 | 61 | 1002.5 |
| 20260505170943 | 67 | 4 | 4.0 | 14.0 | 0.00 | 0.00 | 0.00 | 62 | 1002.7 |
| 20260505164851 | 67 | 149 | 3.0 | 13.0 | 0.00 | 0.00 | 0.00 | 59 | 1003.0 |
| 20260505163842 | 69 | 4 | 3.0 | 10.0 | 0.00 | 0.00 | 0.00 | 59 | 1002.7 |
| 20260505162822 | 70 | 357 | 4.0 | 15.0 | 0.00 | 0.00 | 0.00 | 55 | 1002.7 |
| 20260505161831 | 72 | 12 | 4.0 | 15.0 | 0.00 | 0.00 | 0.00 | 51 | 1002.3 |
| 20260505151523 | 71 | 154 | 4.0 | 11.0 | 0.00 | 0.00 | 0.00 | 55 | 1001.5 |
| 20260505150516 | 70 | 214 | 3.0 | 11.0 | 0.00 | 0.00 | 0.00 | 57 | 1001.7 |
| 20260505140406 | 69 | 357 | 4.0 | 11.0 | 0.00 | 0.00 | 0.00 | 57 | 1001.6 |
| 20260505130148 | 69 | 148 | 4.0 | 14.0 | 0.00 | 0.00 | 0.00 | 57 | 1001.3 |
| 20260505123029 | 68 | 132 | 4.0 | 16.0 | 0.00 | 0.00 | 0.00 | 60 | 1001.1 |
| 20260505122025 | 67 | 174 | 4.0 | 10.0 | 0.00 | 0.00 | 0.00 | 60 | 1001.0 |